Weather History for 01494 - November, 2012

Change the Weather History Date:

Monday, November 5, 2012

  Actual Average Record
Temperature  
Mean Temperature 36 °F -  
Max Temperature 40 °F 38 °F - ()
Min Temperature 30 °F 30 °F - ()
Degree Days  
Heating Degree Days 29    
Moisture  
Dew Point 35 °F    
Average Humidity 93    
Maximum Humidity 100    
Minimum Humidity 80    
Precipitation  
Precipitation 0.00 in - - ()
Sea Level Pressure  
Sea Level Pressure 29.56 in    
Wind  
Wind Speed 6 mph ()    
Max Wind Speed 12 mph    
Max Gust Speed -    
Visibility 6.6 miles    
Events Rain    
T = Trace of Precipitation, MM = Missing Value Source: Averaged Metar Reports

Daily Weather History Graph

Daily Weather History Graph

Search for Another Location

Airport or City:

Trip Planner

Search our weather history database for the weather conditions in past years. The results will help you decide how hot, cold, wet, or windy it might be!

Date:

Astronomy

Nov. 05, 2012 Rise Set
Actual Time 7:47 AM CET 4:12 PM CET
Civil Twilight 7:01 AM CET 4:58 PM CET
Nautical Twilight 6:12 AM CET 5:47 PM CET
Astronomical Twilight 5:25 AM CET 6:34 PM CET
Moon 9:30 PM CET (11/5) 1:04 PM CET (11/5)
Length of Visible Light 9h 56m
Length of Day
8h 25m
Waning Gibbous, 65% of the Moon is Illuminated
Nov 5
Waning Gibbous
Nov 7
Last Quarter
Nov 13
New
Nov 20
First Quarter
Nov 28
Full

Hourly Weather History & Observations

Time (CET) Temp. Windchill Dew Point Humidity Pressure Visibility Wind Dir Wind Speed Gust Speed Precip Events Conditions
12:20 AM 37.4 °F - 35.6 °F 93% 29.53 in - North 2.3 mph - N/A   Overcast
12:50 AM 37.4 °F 33.8 °F 37.4 °F 100% 29.53 in 3.7 mi North 4.6 mph - N/A   Overcast
1:00 AM 37 °F - 36 °F 97% 29.57 in 4 mi North 4.5 mph - -   Clear
1:20 AM 37.4 °F 33.8 °F 37.4 °F 100% 29.53 in 4.3 mi NNE 4.6 mph - N/A   Overcast
1:50 AM 37.4 °F - 37.4 °F 100% 29.53 in 6.2 mi Variable 2.3 mph - N/A   Overcast
2:20 AM 37.4 °F - 37.4 °F 100% 29.53 in 6.2 mi Calm Calm - N/A   Overcast
2:50 AM 37.4 °F 34.9 °F 37.4 °F 100% 29.53 in 6.2 mi NE 3.5 mph - N/A   Overcast
3:20 AM 37.4 °F 33.8 °F 37.4 °F 100% 29.53 in 6.2 mi NNE 4.6 mph - N/A   Overcast
3:50 AM 37.4 °F 32.8 °F 37.4 °F 100% 29.53 in 6.2 mi North 5.8 mph - N/A   Overcast
4:20 AM 37.4 °F 32.1 °F 37.4 °F 100% 29.53 in 6.2 mi NNE 6.9 mph - N/A   Overcast
4:50 AM 37.4 °F 32.1 °F 37.4 °F 100% 29.53 in 6.2 mi NNE 6.9 mph - N/A   Overcast
5:20 AM 37.4 °F 32.1 °F 35.6 °F 93% 29.53 in 6.2 mi NNE 6.9 mph - N/A   Overcast
5:50 AM 37.4 °F 32.8 °F 35.6 °F 93% 29.53 in 6.2 mi NE 5.8 mph - N/A   Overcast
6:50 AM 37.4 °F 32.1 °F 35.6 °F 93% 29.53 in 6.2 mi NNE 6.9 mph - N/A   Light Drizzle
7:00 AM 37 °F - 36 °F 96% 29.55 in 16 mi NNE 6.7 mph - - Rain Light Drizzle
7:20 AM 37.4 °F 32.8 °F 35.6 °F 93% 29.53 in 6.2 mi North 5.8 mph - N/A   Mostly Cloudy
7:50 AM 37.4 °F 33.8 °F 35.6 °F 93% 29.53 in 6.2 mi North 4.6 mph - N/A   Mostly Cloudy
8:20 AM 37.4 °F 34.9 °F 35.6 °F 93% 29.53 in 6.2 mi NNE 3.5 mph - N/A   Mostly Cloudy
8:50 AM 37.4 °F 32.8 °F 35.6 °F 93% 29.53 in 6.2 mi North 5.8 mph - N/A   Mostly Cloudy
9:20 AM 37.4 °F 32.1 °F 35.6 °F 93% 29.53 in 6.2 mi North 6.9 mph - N/A   Mostly Cloudy
9:50 AM 37.4 °F 32.1 °F 37.4 °F 100% 29.53 in 6.2 mi North 6.9 mph - N/A   Mostly Cloudy
10:20 AM 37.4 °F 30.8 °F 37.4 °F 100% 29.53 in 6.2 mi North 9.2 mph - N/A   Mostly Cloudy
10:50 AM 39.2 °F 33.0 °F 37.4 °F 93% 29.53 in 6.2 mi North 9.2 mph - N/A   Mostly Cloudy
11:20 AM 39.2 °F 32.5 °F 37.4 °F 93% 29.53 in 6.2 mi North 10.4 mph - N/A   Mostly Cloudy
11:50 AM 39.2 °F 33.6 °F 37.4 °F 93% 29.53 in 6.2 mi North 8.1 mph - N/A   Scattered Clouds
12:20 PM 39.2 °F 33.0 °F 37.4 °F 93% 29.53 in 6.2 mi North 9.2 mph - N/A   Mostly Cloudy
12:50 PM 39.2 °F 34.2 °F 37.4 °F 93% 29.53 in 6.2 mi North 6.9 mph - N/A   Mostly Cloudy
1:00 PM 40 °F - 37 °F 86% 29.56 in 19 mi North 8.9 mph - -   Partly Cloudy
1:20 PM 39.2 °F 33.0 °F 37.4 °F 93% 29.53 in 6.2 mi North 9.2 mph - N/A   Mostly Cloudy
1:50 PM 39.2 °F 32.5 °F 37.4 °F 93% 29.53 in 6.2 mi North 10.4 mph - N/A   Mostly Cloudy
2:20 PM 39.2 °F 32.5 °F 37.4 °F 93% 29.56 in 6.2 mi North 10.4 mph - N/A   Mostly Cloudy
2:50 PM 39.2 °F 33.6 °F 37.4 °F 93% 29.56 in 6.2 mi North 8.1 mph - N/A   Mostly Cloudy
3:20 PM 39.2 °F 32.5 °F 37.4 °F 93% 29.56 in 6.2 mi NNW 10.4 mph - N/A   Mostly Cloudy
3:50 PM 39.2 °F 32.5 °F 35.6 °F 87% 29.56 in 6.2 mi NNW 10.4 mph - N/A   Mostly Cloudy
4:20 PM 37.4 °F 30.3 °F 35.6 °F 93% 29.56 in 6.2 mi North 10.4 mph - N/A   Mostly Cloudy
4:50 PM 37.4 °F 30.8 °F 33.8 °F 87% 29.56 in 6.2 mi North 9.2 mph - N/A   Mostly Cloudy
5:20 PM 37.4 °F 30.3 °F 33.8 °F 87% 29.56 in 6.2 mi North 10.4 mph - N/A   Mostly Cloudy
5:50 PM 37.4 °F 30.3 °F 33.8 °F 87% 29.59 in 6.2 mi North 10.4 mph - N/A   Mostly Cloudy
6:20 PM 37.4 °F 30.3 °F 33.8 °F 87% 29.59 in 6.2 mi North 10.4 mph - N/A   Mostly Cloudy
6:50 PM 35.6 °F 28.0 °F 32.0 °F 87% 29.59 in 6.2 mi North 10.4 mph - N/A   Mostly Cloudy
7:00 PM 36 °F - 32 °F 80% 29.62 in 31 mi North 11.2 mph - -   Partly Cloudy
7:20 PM 35.6 °F 27.5 °F 32.0 °F 87% 29.59 in 6.2 mi North 11.5 mph - N/A   Mostly Cloudy
7:50 PM 33.8 °F 25.8 °F 30.2 °F 87% 29.59 in 6.2 mi NNW 10.4 mph - N/A   Partly Cloudy
8:20 PM 33.8 °F 25.8 °F 30.2 °F 87% 29.59 in - North 10.4 mph - N/A   Clear
8:50 PM 33.8 °F 26.4 °F 30.2 °F 87% 29.59 in - NNW 9.2 mph - N/A   Clear
9:20 PM 33.8 °F 27.7 °F 30.2 °F 87% 29.62 in - North 6.9 mph - N/A   Clear
9:50 PM 32.0 °F 27.5 °F 30.2 °F 93% 29.62 in 6.2 mi North 4.6 mph - N/A   Partly Cloudy
10:20 PM 32.0 °F 28.7 °F 30.2 °F 93% 29.62 in 6.2 mi North 3.5 mph - N/A   Partly Cloudy
10:50 PM 32.0 °F 28.7 °F 30.2 °F 93% 29.62 in - NW 3.5 mph - N/A   Clear
11:20 PM 32.0 °F - 28.4 °F 87% 29.62 in - Variable 2.3 mph - N/A   Clear
11:50 PM 30.2 °F - 28.4 °F 93% 29.62 in 6.2 mi Variable 2.3 mph - N/A   Unknown